sat.trackr.live / text

‹ back to catalog

HULIANWANG DIGUI-96

NORAD 66412 · 2025-258A

PAYLOAD ACTIVE UNKNOWN

§ Identity

Operator
Country
PRC
Launch date
2025-11-10
Launch site
WSC
Launch vehicle
Mass (kg)
RCS (m²)

External: N2YO · Heavens-Above · Gunter

§ Orbital elements

Epoch: 2026-09-20T10:59:08.697984Z

Period
108.33 min
Inclination
50.0055°
Eccentricity
0.0000022
Mean motion
13.29330761 rev/d
Perigee alt
1,149.3 km
Apogee alt
1,149.3 km
Semi-major
7,527.4 km
B*
7.8845e-5
RAAN
313.9493°
Arg perigee
235.9419°
Mean anomaly
124.1452°
Rev number
4,240

§ Raw data

HULIANWANG DIGUI-961 66412U 25258A   26263.45773956 -.00000087  00000+0  78845-4 0  99972 66412  50.0055 313.9493 0000022 235.9419 124.1452 13.29330761 42409

JSON: /api/v1/satellites/66412 · /tle

For live sub-satellite position, see the globe view (requires WebGL).

§ Visibility from observer

Set your observer location to see the next 7 days of passes ≥ 10°. The values pass through the URL so the page stays shareable.

No JS? Fill the form by hand. The geolocation button needs JavaScript.